This is the latest recevied weather packets stored in our database for station/object ON7SD-5. If no packets are shown the sender has not sent any weather packets the latest 1 day(s).
| Time | Temp. | Humidity | Pressure | Rain* | Wind** | Luminosity | Snow |
|---|---|---|---|---|---|---|---|
| 1778012826 | 11.67° C | 78% | 1008.5 hPa | 0 mm | 0.89 m/s, 29° | 0 W/m² | - |
| 1778012526 | 12.22° C | 78% | 1008.4 hPa | 0 mm | 0.89 m/s, 20° | 0 W/m² | - |
| 1778012226 | 12.22° C | 77% | 1008.4 hPa | 0 mm | 0.89 m/s, 25° | 0 W/m² | - |
| 1778011927 | 12.22° C | 77% | 1008.4 hPa | 0 mm | 0.89 m/s, 24° | 0 W/m² | - |
| 1778011626 | 12.22° C | 77% | 1008.4 hPa | 0 mm | 0.89 m/s, 25° | 0 W/m² | - |
| 1778011326 | 12.22° C | 76% | 1008.3 hPa | 0 mm | 1.34 m/s, 23° | 0 W/m² | - |
| 1778011026 | 12.22° C | 76% | 1008.3 hPa | 0 mm | 1.34 m/s, 18° | 0 W/m² | - |
| 1778010726 | 12.22° C | 76% | 1008.2 hPa | 0 mm | 1.34 m/s, 29° | 0 W/m² | - |
| 1778010426 | 12.22° C | 76% | 1008.1 hPa | 0 mm | 1.34 m/s, 30° | 0 W/m² | - |
| 1778010126 | 12.78° C | 75% | 1008.1 hPa | 0 mm | 1.34 m/s, 30° | 0 W/m² | - |
| 1778009826 | 12.78° C | 75% | 1008 hPa | 0 mm | 1.34 m/s, 20° | 0 W/m² | - |
| 1778009526 | 12.78° C | 75% | 1008 hPa | 0 mm | 1.34 m/s, 33° | 0 W/m² | - |
| 1778009226 | 12.78° C | 75% | 1007.9 hPa | 0 mm | 1.34 m/s, 18° | 0 W/m² | - |
| 1778008926 | 12.78° C | 75% | 1007.9 hPa | 0 mm | 1.34 m/s, 34° | 0 W/m² | - |
| 1778008626 | 12.78° C | 75% | 1007.9 hPa | 0 mm | 1.34 m/s, 31° | 5 W/m² | - |
| 1778008326 | 13.33° C | 74% | 1007.9 hPa | 0 mm | 1.34 m/s, 13° | 0 W/m² | - |
| 1778008026 | 13.33° C | 74% | 1007.9 hPa | 0 mm | 1.34 m/s, 24° | 5 W/m² | - |
| 1778007726 | 13.33° C | 74% | 1007.9 hPa | 0 mm | 1.34 m/s, 21° | 7 W/m² | - |
| 1778007426 | 13.33° C | 74% | 1007.8 hPa | 0 mm | 1.34 m/s, 40° | 11 W/m² | - |
| 1778007126 | 13.33° C | 73% | 1007.8 hPa | 0 mm | 1.34 m/s, 12° | 14 W/m² | - |
| 1778006826 | 13.33° C | 73% | 1007.8 hPa | 0 mm | 1.34 m/s, 8° | 18 W/m² | - |
| 1778006526 | 13.33° C | 73% | 1007.8 hPa | 0 mm | 1.34 m/s, 10° | 21 W/m² | - |
| 1778006226 | 13.89° C | 73% | 1007.7 hPa | 0 mm | 0.89 m/s, 19° | 28 W/m² | - |
| 1778005926 | 13.89° C | 73% | 1007.7 hPa | 0 mm | 1.34 m/s, 65° | 33 W/m² | - |
| 1778005626 | 13.89° C | 72% | 1007.7 hPa | 0 mm | 0.89 m/s, 16° | 40 W/m² | - |
* Rain latest hour (hover to see other rain measurements)
** Current wind speed in m/s (hover to see current wind gust speed)